Theta_e
327 327 328 328 327 328 328 328 328 328 329 329 328 327 327 327 329 329 329 330 329 329 329 329 329 330 330 329 329 328 328 328 328 328 329 330 330 330 329 327 328 328 328 328 327 327 326 324 323 322 323 322 321 318 310 300 296 298 302 306 310 312 308 301 302 304 303 304 305 306 307 307 306 306
326 327 327 328 328 328 328 328 328 328 328 328 328 328 327 327 327 329 330 330 328 328 329 329 329 329 329 330 330 329 328 327 328 328 328 329 329 329 327 325 326 327 328 328 327 327 326 323 321 321 323 323 322 320 309 298 296 298 300 302 307 311 306 301 304 305 304 306 306 306 307 306 306 306
325 326 326 327 328 328 328 328 328 328 328 328 328 328 327 327 327 327 327 328 328 327 328 328 329 329 329 330 329 329 329 327 328 328 327 328 328 327 326 324 325 326 327 327 327 327 325 323 320 319 323 323 322 321 310 297 297 298 298 300 305 309 305 302 305 306 306 307 306 306 307 306 306 306
323 324 325 326 327 328 328 328 328 328 328 328 328 328 327 327 327 326 326 327 327 327 327 328 329 329 329 330 330 330 329 328 328 327 327 327 328 328 326 325 325 325 326 327 327 326 325 324 319 317 322 323 321 321 312 298 297 298 297 300 304 307 304 303 306 307 306 307 306 306 306 306 307 306
321 321 323 325 326 327 327 328 328 328 328 327 327 327 327 326 326 326 326 326 326 326 326 328 328 328 329 330 330 329 328 328 328 327 327 327 328 328 327 326 326 325 326 327 327 326 325 324 319 315 320 322 321 321 311 298 297 298 297 300 303 305 305 305 306 307 307 307 306 307 306 306 307 307
317 318 320 323 325 325 326 327 327 327 327 327 327 327 327 327 326 326 326 326 325 325 326 327 328 329 329 329 329 329 328 328 328 327 327 327 327 328 327 325 325 325 326 326 326 326 325 324 319 315 320 321 320 320 310 297 297 298 297 300 302 304 306 306 306 307 307 307 307 307 307 307 307 307
314 315 317 320 323 325 326 326 326 326 327 327 327 327 327 327 327 327 326 326 325 324 325 325 327 328 329 329 329 329 329 328 327 327 327 327 327 328 326 324 323 324 325 326 326 326 326 325 319 316 320 321 320 319 311 298 297 298 298 301 303 304 307 307 307 307 307 307 307 307 307 307 307 307
312 313 316 319 322 324 325 326 326 326 326 326 326 326 327 328 328 327 327 326 325 325 325 325 326 327 328 329 329 329 328 327 327 326 326 327 327 327 326 323 321 322 324 326 326 326 326 324 317 314 319 321 320 319 311 300 297 298 298 301 303 305 308 308 307 307 307 307 307 307 307 307 307 308
311 313 314 317 320 323 325 326 326 326 326 326 326 326 326 326 327 327 327 326 326 325 325 326 326 326 327 328 328 328 327 326 325 325 325 326 325 325 325 323 321 321 324 326 326 326 326 321 312 311 318 321 320 319 313 302 298 298 298 301 304 306 308 308 307 307 307 307 307 307 307 307 307 308
309 309 311 313 315 317 320 322 324 326 326 326 326 325 326 326 326 326 325 325 325 325 325 325 326 326 326 327 327 327 326 325 324 324 324 324 324 323 323 323 323 323 325 326 326 326 325 317 309 310 316 320 320 319 314 304 297 298 298 300 304 306 308 308 307 307 307 306 307 307 307 307 307 307
305 305 307 310 310 311 313 315 317 319 322 324 326 326 326 326 325 325 325 325 326 326 326 326 326 326 326 327 327 327 326 324 324 324 322 321 322 322 322 322 323 323 325 325 325 326 323 314 309 311 314 318 319 319 316 306 299 298 298 299 303 306 308 308 308 307 307 306 307 307 307 307 307 307
303 303 304 306 306 307 310 311 312 313 315 318 322 325 326 326 325 325 325 326 326 326 326 326 326 326 325 326 326 326 324 323 322 323 322 321 321 321 321 322 322 322 324 324 323 323 320 314 313 315 316 319 320 319 317 310 301 298 299 298 301 305 307 308 308 307 307 306 307 307 307 307 307 307
301 301 301 303 303 305 309 311 312 313 313 313 316 319 323 325 325 325 325 326 326 326 326 325 325 325 325 325 325 323 322 322 322 322 321 321 320 320 320 320 321 321 322 323 322 321 320 316 316 318 319 319 319 319 318 312 302 299 299 298 300 304 307 308 308 308 307 307 307 307 307 307 307 307
299 299 300 301 302 304 308 309 311 312 313 313 314 316 319 321 323 325 325 325 325 326 326 325 325 324 324 325 324 322 321 322 322 321 321 320 319 319 319 318 319 320 320 321 320 320 320 318 317 318 318 318 318 318 316 309 301 298 299 298 299 302 305 308 308 308 307 306 307 307 307 307 306 306
298 298 298 299 300 302 304 305 307 309 311 313 314 316 318 320 321 323 324 325 325 325 325 325 325 324 323 324 324 323 321 321 321 320 320 320 318 317 318 317 317 318 319 319 318 318 318 317 317 318 318 317 316 314 309 303 299 299 299 299 299 299 303 307 308 307 306 306 306 306 306 306 305 306
296 297 297 298 298 299 300 301 303 306 308 311 312 314 318 321 322 322 323 324 325 325 325 325 324 324 323 323 324 324 321 320 320 320 319 319 318 317 317 317 316 317 318 318 317 316 316 316 316 316 316 315 311 306 302 299 299 299 299 299 299 299 301 305 307 307 306 306 306 306 305 305 306 308
295 296 296 297 297 298 299 299 300 302 305 308 310 312 316 319 322 323 323 323 324 324 325 325 324 324 324 323 323 324 323 321 319 318 318 318 318 317 317 317 316 317 318 317 315 314 314 315 316 315 315 313 307 301 299 300 300 300 299 299 300 300 301 303 306 306 306 305 305 305 304 306 307 307
295 295 295 296 296 296 297 297 298 299 302 304 307 309 312 316 319 322 323 324 324 324 324 324 324 325 324 324 324 324 324 322 319 318 318 318 318 318 318 317 316 315 316 315 313 312 312 313 314 314 313 312 307 301 299 299 299 300 300 300 301 301 302 303 304 305 306 306 305 304 305 307 306 303
295 294 295 295 295 294 294 295 296 297 299 302 304 306 308 312 316 319 321 323 324 324 324 324 324 325 325 325 325 325 324 323 322 320 319 319 318 318 317 316 314 315 316 314 313 311 311 311 312 312 311 310 307 304 301 300 300 300 301 301 302 303 304 304 304 307 308 307 305 305 306 305 302 300
294 294 294 294 294 293 293 294 295 296 298 300 302 302 304 308 312 316 319 321 322 323 324 324 325 325 325 325 325 324 324 324 322 319 317 317 317 316 316 315 314 314 315 314 314 314 311 310 310 310 310 309 308 306 305 303 302 302 302 304 304 304 305 305 307 310 310 307 305 305 304 302 300 300
293 293 294 294 293 292 292 294 295 296 297 298 299 299 300 304 308 313 316 318 320 322 323 323 324 324 325 325 324 324 324 323 322 318 315 315 316 316 316 315 313 313 314 314 315 315 311 309 309 309 308 308 307 307 306 305 304 303 304 306 307 307 307 308 310 311 309 306 304 304 302 300 300 300
293 293 293 293 293 292 292 293 295 295 296 297 297 297 298 300 303 308 313 315 318 321 322 322 323 324 324 324 324 324 324 323 322 319 316 315 315 315 316 315 313 312 313 313 314 313 310 309 309 308 306 306 305 306 306 306 305 305 305 307 308 308 309 310 312 310 307 304 303 301 300 300 300 301
292 292 292 293 292 292 292 293 294 295 295 295 295 295 296 297 300 304 309 312 316 319 322 322 322 323 324 324 324 324 324 323 322 321 319 316 314 315 315 315 313 312 312 313 314 312 309 308 308 307 306 305 304 304 304 305 305 305 306 307 308 309 310 311 311 308 305 302 301 300 300 300 301 301
291 291 292 292 292 292 293 293 293 294 295 295 294 295 294 295 298 303 308 312 314 316 319 321 321 322 323 323 323 322 322 322 322 321 320 317 315 314 314 313 314 315 314 313 313 311 309 308 308 307 307 308 305 303 303 305 305 306 306 307 308 310 311 310 307 304 302 301 300 300 300 300 300 301
290 291 291 291 291 292 293 293 293 294 295 295 295 295 295 297 300 305 309 313 314 314 316 318 318 318 319 319 319 318 320 322 322 321 320 318 316 315 314 312 312 313 314 314 314 312 310 308 307 306 306 306 304 301 302 303 304 306 307 307 308 309 308 305 302 301 300 300 300 300 300 300 300 300
290 290 291 291 291 291 292 293 293 293 294 295 294 295 297 300 303 306 309 311 312 312 313 314 314 314 314 314 314 314 316 319 321 321 320 319 318 316 315 314 313 312 313 315 315 313 311 309 307 307 306 305 303 301 301 300 301 304 306 306 307 305 303 301 300 300 300 300 300 300 300 300 299 299
290 291 291 291 291 291 292 293 293 293 294 294 294 295 297 299 302 304 305 306 308 309 309 308 308 308 309 310 311 312 312 314 317 318 318 319 319 317 315 315 314 313 312 313 314 314 313 311 309 308 307 305 302 301 301 300 299 301 302 302 302 301 300 300 300 300 300 300 300 300 299 299 298 298
291 290 291 291 291 291 292 292 293 293 294 294 294 294 295 297 299 300 301 300 302 303 304 303 302 302 304 306 307 308 309 310 312 315 315 316 316 316 315 315 314 313 313 313 314 314 313 312 310 308 308 306 304 302 301 300 299 299 299 299 299 299 300 300 300 300 300 300 299 299 298 298 297 297
291 291 291 291 291 291 291 291 292 292 293 294 294 294 294 295 295 297 298 298 298 299 299 299 299 300 301 302 303 304 306 307 309 311 313 314 314 314 314 314 313 313 313 313 313 312 312 312 310 308 307 307 305 303 302 300 299 299 299 299 299 299 300 300 300 300 299 299 298 298 298 297 297 297
291 291 291 291 291 291 291 291 291 291 292 293 294 295 294 294 293 293 295 296 297 297 297 298 298 299 300 301 302 303 304 304 305 307 309 311 311 311 312 311 310 310 311 311 311 310 310 310 310 309 307 306 305 304 302 300 299 298 299 299 299 299 299 300 300 299 298 298 298 297 297 297 296 296
291 291 291 291 291 291 291 291 291 291 291 292 292 293 293 293 293 293 293 294 295 296 296 297 299 299 300 300 301 302 302 302 302 303 304 306 307 308 310 309 306 306 308 308 308 309 309 309 309 308 307 305 304 303 302 300 299 299 298 299 298 298 298 299 299 298 298 297 296 296 296 296 296 296
291 291 291 291 291 291 291 291 291 291 291 291 291 291 292 293 293 294 294 294 295 295 296 297 298 299 299 299 299 300 301 301 301 302 302 302 303 305 306 305 303 303 305 307 307 308 309 308 308 307 307 306 304 303 301 300 299 299 298 298 298 298 298 298 298 297 296 296 295 295 295 295 295 295
291 291 291 291 291 291 291 291 291 290 291 291 291 291 291 292 292 293 293 293 293 294 295 295 296 297 297 297 298 299 299 299 300 300 301 301 300 301 302 300 299 300 301 303 305 306 307 307 306 306 306 305 304 302 301 300 299 299 298 298 298 297 297 297 297 296 296 296 295 294 294 294 294 294
292 291 291 291 290 291 291 290 290 290 290 290 291 291 291 291 291 291 292 292 292 293 293 294 294 295 296 296 297 297 297 297 298 298 299 299 299 299 298 297 297 298 299 299 301 303 304 305 305 304 303 303 302 301 301 300 299 298 298 298 298 297 297 297 296 296 296 295 295 294 294 294 294 294
292 291 291 291 290 290 290 290 290 291 290 290 290 290 291 291 291 291 291 291 292 293 292 293 293 294 294 295 296 296 296 297 297 297 297 297 297 297 297 297 297 297 298 298 299 300 301 302 302 302 301 301 300 300 300 299 299 299 298 298 298 297 296 296 295 295 295 295 295 294 294 294 294 294
292 292 291 291 291 291 290 290 291 291 290 290 290 290 290 290 290 290 290 291 292 292 292 292 292 293 293 294 295 296 296 296 296 297 297 296 296 296 296 296 296 297 297 297 298 299 300 300 301 300 299 298 298 297 297 298 300 299 299 298 297 296 295 295 295 295 294 294 294 294 294 294 294 294
291 292 291 291 291 291 291 291 291 291 291 290 290 290 290 290 290 291 291 291 291 292 292 292 292 292 293 293 294 294 295 295 295 296 296 296 296 295 295 295 296 296 297 297 298 298 298 298 299 298 297 297 296 295 295 297 299 299 298 296 295 295 295 295 295 295 295 294 294 294 294 294 294 293
291 291 291 291 291 291 291 291 291 291 291 291 291 291 290 291 291 291 291 291 291 291 291 292 292 292 292 292 293 293 294 294 294 294 295 295 295 295 295 295 295 295 296 297 298 298 298 298 297 297 296 295 295 295 295 296 297 297 297 297 296 295 296 296 295 295 295 294 294 294 294 293 293 293
291 291 291 291 291 291 292 291 291 291 291 291 291 291 291 291 291 291 291 291 291 291 291 291 292 292 292 292 292 293 293 293 293 293 294 294 294 294 294 294 294 295 295 295 296 297 298 298 297 297 296 296 295 295 295 295 295 296 297 297 297 296 296 295 295 295 295 295 295 294 293 292 292 292
292 292 291 291 291 291 292 292 291 291 291 291 291 291 291 291 291 291 291 291 291 291 292 292 292 292 292 292 293 293 293 293 293 293 294 294 294 294 294 294 295 295 294 294 294 295 296 297 297 297 297 296 295 295 295 295 294 295 296 297 296 296 296 295 295 295 295 295 294 293 292 292 291 291
292 292 292 291 291 291 291 292 292 292 291 291 291 291 291 291 291 292 291 291 291 292 292 292 292 292 292 292 293 293 293 293 293 293 294 294 294 294 295 295 295 295 294 294 294 294 294 295 296 296 296 295 295 295 295 294 293 294 294 295 296 296 296 296 295 295 295 295 294 293 292 292 291 291
291 291 292 292 291 291 291 292 292 291 291 291 291 291 291 291 291 291 291 292 292 292 292 291 292 292 292 292 292 293 293 293 293 293 293 294 294 294 294 295 295 295 294 293 293 293 294 294 295 295 295 294 295 294 293 292 292 293 293 294 295 296 296 296 295 295 295 294 294 293 293 292 292 291
291 291 291 291 291 291 291 291 291 291 291 291 291 291 291 291 290 290 291 291 291 291 291 291 291 292 292 292 292 292 292 293 293 293 293 294 294 294 294 294 295 295 294 293 292 293 293 294 294 294 294 294 294 294 293 292 292 292 293 293 294 295 296 296 295 295 295 294 294 294 294 294 293 293
291 291 291 291 291 291 291 291 291 291 291 291 291 291 291 291 291 290 290 290 290 290 291 291 291 291 292 292 292 292 292 292 293 293 294 294 294 294 294 294 294 294 294 293 292 293 293 293 293 293 293 293 293 293 292 292 292 292 292 293 293 294 295 295 295 295 295 295 295 295 294 294 294 294
291 291 291 291 291 291 291 291 291 291 291 291 291 291 290 291 290 290 290 290 289 290 290 290 291 291 291 292 292 292 292 292 293 293 294 294 294 294 294 294 294 294 294 293 292 292 292 293 293 293 292 293 293 293 293 292 292 292 292 292 293 293 293 294 294 294 294 294 294 294 294 294 294 293
Wind_Speed
28 28 29 30 31 30 30 30 30 29 29 29 29 28 25 17 7 4 6 5 7 16 21 21 24 30 34 35 34 33 33 32 31 30 31 32 31 30 30 30 31 32 32 31 30 29 31 30 30 30 27 25 24 21 20 22 24 24 23 23 22 20 19 20 20 20 19 17 17 17 17 16 15 13
26 28 29 29 29 29 29 29 29 28 28 29 30 30 30 26 16 8 5 6 9 15 21 23 22 25 30 33 33 33 33 32 31 31 32 33 32 30 30 31 31 31 32 32 31 31 32 32 31 31 29 27 24 22 21 23 25 25 24 24 23 21 20 21 21 21 19 18 18 18 17 16 14 13
25 27 28 28 27 28 29 28 27 28 29 29 29 29 30 30 26 18 8 5 10 16 20 24 25 24 25 30 32 32 32 32 31 31 33 34 32 31 30 31 31 31 32 33 33 33 34 33 31 31 30 29 26 22 22 25 26 26 25 25 24 22 21 22 22 22 20 19 19 18 17 15 14 12
24 25 26 27 27 27 28 27 26 26 28 28 27 28 29 28 27 25 15 6 8 15 20 23 26 24 23 26 31 33 33 32 32 33 35 35 32 32 31 31 31 32 33 34 34 35 35 34 32 32 31 30 27 24 24 26 28 27 26 26 25 24 23 23 23 23 22 21 20 18 16 15 13 11
25 25 25 26 26 25 26 26 25 25 25 24 25 27 27 26 26 25 20 11 8 12 18 20 21 23 24 26 30 33 33 33 34 35 35 34 33 33 33 32 32 32 33 35 36 36 36 35 33 32 32 31 29 25 25 27 28 27 27 27 26 25 24 24 24 23 23 22 20 18 16 14 12 10
28 27 25 25 25 25 24 24 23 23 23 23 25 27 27 25 25 26 23 16 10 11 16 19 19 21 24 26 29 33 34 35 37 37 37 36 36 36 35 34 33 33 34 35 36 37 37 35 33 33 33 32 30 26 26 28 29 28 28 29 28 27 26 25 24 24 23 21 20 18 16 14 12 10
30 30 27 25 25 25 23 22 22 23 23 22 23 25 27 27 26 26 26 21 15 13 16 19 20 21 23 26 29 32 35 36 36 38 39 38 38 38 37 35 34 34 35 36 36 37 37 35 33 34 34 33 31 28 26 28 30 29 29 30 29 28 27 26 25 24 23 21 20 18 16 14 12 10
30 29 27 26 26 26 24 22 22 22 23 23 22 22 22 24 24 24 26 26 22 16 15 19 22 23 24 26 28 30 32 33 34 37 37 37 38 39 39 37 35 34 35 36 37 37 37 35 34 35 35 34 32 29 27 28 30 30 31 31 30 29 28 27 26 25 23 22 20 18 16 14 12 11
28 27 26 25 27 27 25 23 22 22 22 23 22 22 21 21 22 21 23 25 24 19 17 19 21 22 24 25 27 30 31 29 30 32 33 35 37 36 36 36 35 35 35 36 37 37 36 34 34 35 36 34 33 30 27 28 31 31 31 32 31 30 28 27 26 25 24 22 20 18 16 14 12 11
25 25 26 25 25 26 25 23 22 22 23 23 22 22 22 22 22 21 21 22 22 22 23 22 21 21 23 24 25 29 32 30 30 29 27 29 32 31 32 34 35 36 37 37 38 37 36 34 35 36 36 35 33 31 28 28 30 32 32 31 31 30 29 28 27 26 24 22 20 18 16 14 13 12
27 27 27 27 27 28 27 25 23 21 20 21 22 23 24 23 22 22 22 23 23 24 24 22 22 23 23 24 25 28 31 30 31 31 26 23 25 28 32 34 33 35 38 38 38 37 35 34 35 36 36 35 34 32 29 28 30 32 32 31 31 31 29 28 27 26 24 22 20 18 16 15 13 13
29 28 27 27 29 30 28 25 23 24 22 19 19 22 23 24 22 22 22 23 23 24 23 21 22 22 22 23 24 24 25 23 25 32 31 27 28 30 32 34 34 35 37 38 39 38 35 34 36 37 36 35 35 33 30 28 30 32 33 31 32 32 31 29 27 26 24 23 21 19 17 15 14 14
31 30 29 28 29 31 28 25 23 23 23 22 20 19 20 21 22 22 22 21 22 22 21 19 20 19 19 21 20 19 24 26 26 29 29 26 28 30 29 30 33 35 37 38 39 39 37 36 37 38 37 37 36 34 32 30 30 33 34 33 33 33 32 30 28 27 25 24 22 20 18 16 15 15
33 32 31 30 31 33 30 28 27 26 24 23 20 19 18 19 20 22 22 21 21 20 18 18 19 16 16 20 22 22 28 31 26 26 29 25 22 24 22 21 27 33 35 36 37 38 39 38 38 39 39 39 38 37 35 33 33 34 35 34 34 34 34 31 29 28 26 24 23 20 18 17 16 15
33 32 32 32 34 36 34 32 31 30 28 26 23 21 19 19 19 21 22 22 22 20 18 19 20 18 18 22 26 26 29 29 27 30 33 27 23 24 20 15 20 30 34 34 34 35 36 37 38 39 40 41 40 39 37 35 35 35 35 35 35 34 34 32 30 28 26 24 23 20 19 18 17 15
33 32 31 32 34 36 35 34 34 34 32 30 28 25 21 20 19 20 22 24 23 21 20 19 19 20 23 23 25 27 29 30 30 31 31 29 28 29 26 21 22 30 35 33 30 31 33 36 37 38 41 42 41 39 37 36 35 35 35 35 35 34 33 33 31 29 27 25 23 21 19 18 17 15
33 32 30 31 34 37 37 36 37 38 37 34 32 29 24 21 19 19 20 24 26 26 24 21 21 25 27 25 26 30 32 32 31 29 29 31 31 30 31 31 29 32 38 36 29 26 30 35 36 37 40 42 41 39 37 36 36 35 35 35 35 35 34 33 32 30 27 25 23 21 20 18 16 15
32 30 29 30 32 35 36 36 38 39 39 38 36 33 29 24 21 20 19 20 24 29 29 26 26 29 31 29 30 32 33 34 34 33 34 36 35 35 36 35 31 30 35 36 28 21 26 33 35 37 39 40 40 39 37 37 36 35 35 35 34 35 34 33 31 29 26 24 22 21 19 18 16 14
31 29 27 28 30 32 34 35 36 37 38 38 37 35 32 28 25 22 20 19 19 25 31 31 30 31 30 31 33 31 31 35 37 38 39 39 37 33 29 26 26 28 32 36 29 19 23 32 34 36 38 37 37 38 37 37 37 35 35 35 34 33 33 32 31 28 24 23 22 21 20 18 16 14
31 29 27 27 29 31 34 35 34 35 35 35 35 34 32 30 27 24 21 20 19 20 25 30 33 32 29 29 31 30 30 33 35 31 28 28 27 23 19 19 23 27 29 35 35 24 21 29 33 32 32 33 33 35 36 36 36 36 35 34 34 33 32 31 29 26 23 23 22 21 20 18 16 15
31 29 27 27 28 31 34 35 34 33 33 33 33 32 31 29 28 26 22 19 20 19 20 25 30 32 30 27 27 29 29 31 32 26 21 24 27 23 16 15 20 26 29 35 38 29 21 27 32 27 24 26 28 30 33 34 33 33 34 34 33 32 30 29 28 25 24 24 23 22 20 18 17 16
32 31 29 27 28 32 35 34 33 33 33 32 30 29 28 28 27 26 23 20 20 19 19 21 25 29 30 28 26 26 27 30 33 31 28 29 31 26 19 17 19 21 27 35 37 27 20 25 30 25 18 16 19 23 26 29 29 29 29 29 29 29 29 28 26 25 25 25 24 23 20 19 18 17
33 33 33 31 30 33 34 33 32 32 32 30 29 26 25 26 28 29 25 21 20 21 20 19 21 24 27 28 27 26 27 28 32 35 35 34 34 30 26 24 18 11 18 35 39 28 21 25 30 27 17 8 8 15 20 22 25 26 26 25 25 25 26 26 27 27 28 27 25 22 20 19 18 17
33 34 35 35 33 34 34 32 32 32 31 29 28 26 26 26 30 32 28 20 17 20 20 18 18 19 21 24 26 26 26 27 30 34 36 36 37 36 31 27 23 16 19 33 40 30 23 26 31 29 19 8 7 11 14 19 24 26 27 28 27 26 27 29 30 30 29 27 24 22 21 19 17 15
31 33 35 36 35 34 33 31 32 33 31 30 29 29 28 26 26 27 24 19 15 16 17 15 14 14 15 17 18 18 21 25 29 34 35 34 37 39 35 29 27 23 21 30 40 35 26 27 32 29 19 11 12 15 14 15 21 25 27 29 30 31 33 35 34 31 29 26 24 23 21 19 15 12
31 32 34 36 35 34 33 31 31 33 33 32 32 30 28 26 22 17 13 10 10 11 10 9 9 9 9 10 10 11 15 20 28 34 37 35 35 37 37 35 34 33 29 32 40 41 33 30 33 32 22 13 16 20 19 16 18 23 26 28 33 37 39 39 36 33 30 28 26 23 21 17 14 11
31 32 33 34 35 35 34 32 31 33 34 35 35 32 30 29 26 21 17 11 2 2 4 4 3 4 3 5 7 7 9 13 21 29 33 34 34 33 34 36 38 38 34 32 37 42 38 33 35 36 30 23 21 18 17 18 21 26 28 30 35 38 38 38 37 34 32 30 27 24 21 17 15 12
30 31 33 33 34 35 35 34 33 33 35 36 37 36 35 34 32 29 27 24 17 14 15 16 15 13 9 4 3 4 5 7 12 19 24 26 27 26 27 30 32 32 30 30 36 42 40 36 37 37 35 34 30 22 18 21 27 32 34 33 33 35 36 36 36 35 32 30 27 24 21 19 16 14
30 31 32 33 35 35 36 36 36 35 35 36 37 38 38 37 36 34 31 31 28 23 21 21 20 18 16 11 7 5 6 8 9 13 18 20 20 21 24 25 24 24 26 28 32 38 39 37 37 35 33 34 34 31 29 28 30 35 39 38 34 33 35 36 36 35 32 29 26 23 20 18 16 13
32 32 33 34 36 36 36 37 37 36 37 38 38 39 40 38 37 34 31 31 30 27 24 24 23 20 18 14 11 9 9 10 11 12 18 21 21 20 22 21 16 16 19 24 30 35 35 34 36 37 33 29 29 33 37 37 33 32 36 40 38 34 35 37 36 34 31 28 25 22 18 15 14 12
33 33 34 35 36 37 38 39 39 39 39 39 39 40 40 39 37 35 33 31 31 28 25 25 26 24 22 19 16 15 15 14 12 11 13 19 21 21 23 22 19 16 17 21 26 28 27 28 33 36 34 29 26 28 34 39 38 33 31 34 34 33 36 39 36 33 31 29 25 22 18 15 13 12
33 33 35 37 38 39 40 41 41 41 40 39 39 39 39 39 38 37 36 34 34 31 28 27 28 28 27 26 24 23 22 20 16 13 13 14 16 18 22 21 19 19 20 19 20 21 22 25 30 33 33 32 31 32 32 32 35 35 32 30 29 31 36 39 37 33 31 29 25 22 18 15 14 12
33 34 35 36 36 37 37 37 38 38 39 38 39 39 39 39 38 38 37 35 34 33 31 30 30 30 29 28 29 29 29 27 23 19 17 18 18 20 23 22 18 19 22 22 23 24 24 25 27 28 29 31 33 36 36 33 31 33 34 32 31 31 32 35 34 32 29 27 25 23 19 16 15 14
32 33 33 33 33 33 33 33 34 35 36 36 36 37 38 38 38 37 35 34 33 33 32 31 31 31 30 29 30 31 31 31 29 27 25 25 25 25 26 24 21 20 22 23 24 28 31 31 31 30 31 33 31 29 33 35 33 31 32 34 34 32 30 30 31 27 24 24 25 24 20 17 15 14
29 30 30 31 32 32 31 31 32 33 34 34 34 35 36 37 37 36 34 33 33 33 33 32 31 30 30 29 29 29 29 30 30 31 31 31 30 28 27 25 23 22 23 22 20 24 30 36 38 36 33 32 29 24 25 33 38 36 34 33 32 31 29 28 27 25 23 23 23 23 21 18 15 13
28 28 28 28 30 31 31 31 32 32 33 33 33 33 33 34 35 35 33 33 34 33 32 32 31 29 28 27 27 27 27 28 29 30 31 31 30 29 29 28 27 27 27 25 21 20 23 27 33 34 27 20 18 14 13 22 35 39 37 33 31 30 29 28 26 25 24 22 21 22 22 19 15 13
27 28 28 27 28 28 29 30 31 32 32 33 33 33 32 32 33 34 34 36 36 35 33 32 31 29 27 26 25 24 24 25 26 26 27 27 27 27 26 26 27 28 29 28 25 24 24 23 25 26 21 13 9 7 10 19 29 34 34 33 32 31 31 30 27 24 21 20 19 19 20 19 16 14
27 28 28 28 27 27 27 28 30 31 32 32 32 33 33 33 33 34 35 36 36 35 34 33 32 30 29 27 25 24 23 23 23 24 24 25 25 24 23 23 24 25 26 26 25 26 27 26 26 26 22 14 8 6 11 19 24 25 29 32 33 32 30 29 26 23 21 20 18 17 18 18 17 16
26 27 28 28 27 26 25 26 27 28 30 31 31 31 32 33 34 34 34 34 33 33 33 33 32 32 31 28 26 24 23 22 22 22 22 22 22 21 21 21 21 22 22 22 22 23 24 24 24 25 24 19 15 15 19 21 21 21 25 28 29 30 28 26 24 23 21 20 19 19 19 18 17 17
26 27 28 28 28 25 23 23 25 26 28 29 28 28 29 30 32 33 32 32 32 31 31 31 31 32 32 30 27 25 24 23 22 21 21 20 20 20 19 19 19 20 20 20 19 19 19 19 18 19 22 23 23 26 28 26 21 20 22 23 24 25 26 25 25 24 22 21 21 21 20 18 18 17
25 27 27 28 27 25 22 20 22 24 26 27 27 28 28 28 28 29 30 31 31 30 30 29 29 29 29 29 28 26 24 22 21 21 20 20 19 18 18 17 17 18 18 18 17 16 15 15 15 17 21 26 27 26 23 19 17 17 18 20 21 22 22 22 23 23 23 23 23 22 20 17 16 15
24 25 26 26 26 25 22 20 20 22 24 24 25 27 29 29 28 27 27 28 29 28 28 28 27 26 26 26 26 26 23 21 19 19 19 18 18 17 17 16 16 16 17 17 17 16 15 14 15 18 22 24 24 22 16 14 15 18 18 17 18 20 20 20 20 20 21 22 22 20 17 14 13 12
22 23 24 24 23 23 21 21 20 21 21 22 23 25 28 29 29 27 25 24 25 25 25 25 25 25 24 24 24 25 23 20 17 15 15 15 14 14 14 15 15 16 18 20 19 19 18 17 18 21 21 20 20 20 18 17 19 21 20 18 17 18 19 19 19 19 19 19 17 15 14 13 11 11
22 22 21 22 23 22 20 20 21 21 20 21 23 25 26 27 28 28 26 23 22 22 21 21 21 22 22 23 23 23 22 20 17 14 13 13 13 11 11 13 15 16 19 21 21 21 20 19 18 18 17 16 19 22 22 20 20 21 20 20 18 18 18 18 18 18 18 16 13 10 9 9 8 9
22 20 18 19 22 22 20 19 20 20 20 20 22 24 25 26 26 26 25 23 22 21 20 19 18 18 19 21 22 22 21 20 18 15 13 13 12 11 11 12 14 16 17 19 20 19 18 16 15 14 14 16 19 21 22 22 21 21 20 20 19 19 18 18 18 18 16 14 11 9 8 8 9 12
Wind_Direction
301 295 289 284 281 284 284 277 270 263 255 250 245 234 224 221 218 209 216 209 213 219 216 217 224 226 223 221 222 223 224 225 226 224 223 225 226 222 218 216 214 213 212 212 212 211 207 201 204 212 213 212 216 215 211 208 202 194 188 184 178 178 181 177 169 166 165 165 165 163 161 159 157 156
309 305 297 287 281 283 283 278 270 264 258 253 246 236 227 223 222 217 220 215 208 212 216 218 222 224 223 221 221 222 223 223 223 222 220 222 223 219 217 216 214 212 211 210 211 209 204 202 206 211 213 214 217 219 214 207 202 195 190 184 178 179 182 178 172 170 169 171 172 169 166 165 164 164
314 312 307 298 291 287 283 277 270 265 261 254 244 236 228 223 222 222 222 232 219 211 214 219 222 224 223 219 219 221 222 222 221 218 215 217 219 218 218 217 214 212 210 209 210 208 204 205 209 211 213 214 216 220 217 208 201 196 191 184 179 181 184 180 176 175 175 177 177 175 174 173 173 174
318 314 311 307 299 293 286 278 270 266 262 252 241 236 230 221 221 222 221 231 229 218 220 221 219 222 224 220 219 219 220 221 218 212 213 216 217 219 219 218 214 211 209 208 208 208 205 206 211 213 213 215 216 221 221 210 200 195 191 185 181 183 184 183 182 181 181 182 181 181 182 181 183 185
326 320 313 310 306 301 292 281 273 268 264 253 240 237 232 223 220 220 219 224 233 224 224 224 220 221 221 217 217 216 215 218 216 211 214 220 221 222 220 217 215 211 209 208 208 207 207 207 211 214 213 215 218 221 220 210 200 195 191 187 184 185 186 187 188 188 187 187 187 187 188 189 191 196
334 329 319 312 311 308 298 286 277 272 269 259 244 237 233 228 223 220 218 220 226 226 224 223 220 219 217 214 214 213 213 216 215 213 215 221 223 224 221 217 215 212 209 209 208 208 208 208 211 213 212 214 217 220 220 210 200 196 193 190 187 188 189 190 193 194 193 193 193 194 195 197 201 207
337 333 326 319 316 310 300 293 287 278 271 265 253 241 233 227 224 222 221 220 219 222 227 225 220 216 213 213 215 215 216 217 214 212 214 218 219 220 219 217 215 212 209 209 209 209 209 209 211 212 213 215 217 220 220 212 201 196 195 192 190 190 191 192 196 199 200 201 201 201 202 204 210 219
339 334 328 324 324 316 302 294 291 283 273 268 264 258 245 232 226 224 224 224 220 217 225 228 224 218 213 215 218 216 215 215 214 213 212 213 214 215 216 216 214 212 210 209 210 210 210 210 211 212 212 215 218 220 219 213 203 198 198 196 192 192 194 195 198 202 204 206 206 207 209 213 219 228
344 340 337 333 333 327 312 297 289 283 276 271 267 264 260 251 241 232 227 227 222 215 220 228 229 224 218 218 219 215 210 209 212 214 211 210 211 210 210 212 213 212 209 208 210 211 211 212 212 212 213 215 218 220 219 215 206 200 200 199 195 195 197 199 202 204 207 209 209 212 215 220 228 238
346 346 348 347 346 343 334 320 306 292 281 274 267 261 258 254 248 240 236 234 225 216 220 227 229 225 218 215 214 213 209 203 203 208 208 208 207 202 202 206 211 211 208 207 209 211 211 212 211 211 213 215 218 220 220 216 209 203 203 202 198 197 200 204 206 207 210 211 213 217 221 226 236 247
351 351 352 354 355 354 350 344 337 327 310 288 274 265 258 251 244 239 236 233 225 219 220 223 226 225 219 212 211 213 209 201 199 201 196 195 199 198 198 200 204 207 207 206 208 211 212 212 211 212 213 215 218 220 221 218 212 206 205 204 202 200 203 207 210 211 212 215 218 222 226 233 242 253
353 352 352 353 355 355 353 348 345 346 343 326 300 279 264 252 243 238 232 226 222 224 225 222 223 224 219 213 212 209 199 192 197 201 195 190 193 196 197 198 201 204 205 204 207 209 211 211 211 211 213 215 217 220 222 221 215 209 206 205 204 204 206 210 212 214 215 217 221 225 230 237 246 256
355 352 351 351 352 354 352 347 343 340 342 342 329 307 285 264 249 241 235 226 220 222 224 222 220 220 218 213 203 192 191 195 198 198 197 197 195 193 194 197 201 204 203 202 204 207 209 209 209 210 212 214 216 219 223 223 217 211 208 206 205 206 208 211 214 216 217 219 223 226 232 239 248 257
356 353 353 352 353 355 352 347 344 339 335 336 333 321 305 286 264 248 239 230 223 221 219 220 217 213 217 212 199 191 198 203 197 190 194 198 189 183 186 192 202 207 203 200 202 207 209 208 207 210 212 213 215 218 221 220 215 211 210 208 207 208 209 212 215 216 218 222 225 229 234 241 249 255
356 353 353 352 354 357 355 349 344 340 335 332 329 320 307 294 278 258 243 232 226 222 220 222 217 211 217 215 204 199 200 198 193 191 195 191 172 172 183 189 201 209 205 199 200 205 209 208 208 210 212 214 216 217 218 217 214 212 210 209 209 210 210 212 214 217 220 223 227 230 235 241 245 245
358 355 352 350 352 355 355 352 347 342 337 332 329 325 311 296 285 271 253 241 231 223 220 223 219 215 222 220 207 201 197 194 193 193 193 189 180 182 190 191 194 203 204 201 201 204 208 209 209 212 214 215 217 218 217 215 215 213 211 211 211 211 212 213 214 217 220 224 227 231 235 238 236 232
358 356 352 348 349 352 355 355 352 346 340 334 330 327 319 305 293 283 268 253 242 233 227 225 223 220 223 223 214 207 202 195 190 187 189 192 190 190 195 197 196 197 198 197 197 201 208 208 209 213 217 217 218 218 218 217 216 215 213 213 213 213 213 213 214 217 220 223 226 229 230 229 225 220
355 356 353 348 346 349 352 354 352 347 343 338 334 330 326 317 304 293 283 268 252 241 233 229 230 229 227 226 225 219 209 200 194 191 192 194 195 197 201 201 195 191 195 197 193 199 210 208 207 214 218 219 220 220 219 219 218 216 215 214 214 215 215 214 215 218 220 222 224 224 223 219 214 210
354 354 351 348 345 346 348 351 351 348 343 340 337 334 329 324 315 302 292 285 271 251 237 232 235 238 236 234 233 228 217 210 208 205 202 199 196 197 197 192 187 190 198 200 195 199 211 207 206 213 218 219 221 221 221 221 220 219 219 218 217 217 217 217 217 218 220 220 219 217 213 208 203 201
355 354 350 347 346 346 348 349 351 351 345 340 339 336 330 326 320 310 300 295 289 271 251 241 240 243 243 241 239 234 225 219 215 209 202 193 186 181 175 174 183 193 198 200 198 199 207 206 205 209 214 217 220 221 221 222 221 220 220 221 221 219 218 218 218 218 218 216 213 208 203 199 196 193
355 354 351 348 347 348 349 350 352 353 349 344 342 337 331 328 323 318 315 306 293 283 267 252 244 242 243 242 239 234 230 224 216 204 188 182 179 175 172 177 187 192 195 197 199 200 201 201 200 200 204 212 217 219 221 221 221 221 221 221 221 221 219 217 216 215 213 209 204 200 196 192 188 185
356 355 353 353 351 349 350 352 354 356 354 350 346 339 332 328 322 319 321 316 298 283 272 260 250 243 240 239 237 233 231 227 218 206 197 192 184 178 182 188 184 186 194 198 199 198 194 193 190 183 179 193 207 213 217 219 218 218 218 219 220 220 217 214 211 209 206 201 195 192 188 182 177 173
355 356 355 356 356 352 352 356 358 359 359 356 350 343 335 326 319 317 318 313 297 281 270 262 255 248 244 243 241 237 233 228 221 214 209 200 189 184 190 188 171 169 202 203 198 194 187 184 181 175 162 158 198 206 208 211 211 210 208 207 209 211 209 206 203 200 195 190 186 182 177 172 167 164
352 354 355 357 357 355 356 359 2 3 4 2 357 351 343 331 322 317 310 300 286 275 266 258 252 248 246 246 244 240 236 230 224 218 213 205 196 193 193 188 182 189 206 200 194 190 184 180 180 181 178 163 160 179 189 194 196 198 199 195 191 193 194 192 190 187 184 180 177 171 167 163 161 161
353 353 354 356 357 358 358 1 5 7 8 9 6 0 354 345 331 318 304 290 276 263 252 243 241 240 238 238 238 235 230 228 225 219 213 208 205 201 196 191 193 200 205 201 196 192 186 181 180 181 182 167 144 144 152 170 183 188 192 190 183 180 182 180 176 173 171 169 166 162 158 157 158 159
357 355 355 357 359 0 2 5 9 11 12 15 12 9 9 7 356 342 326 299 265 247 234 216 207 212 218 219 216 214 215 219 222 218 212 210 212 209 204 202 204 207 207 204 200 195 190 186 182 178 174 159 143 141 137 141 163 175 179 180 176 172 173 171 166 163 162 160 157 156 154 152 152 150
360 359 359 0 2 5 7 9 11 14 16 18 17 17 22 24 21 21 23 20 12 143 88 76 98 109 157 194 190 192 198 204 213 215 212 210 213 213 210 210 213 214 209 203 200 199 197 192 187 184 177 159 143 140 138 138 150 159 160 163 165 165 166 165 160 157 157 154 153 153 152 149 149 147
4 3 4 6 9 11 11 12 14 17 19 21 22 23 27 32 33 34 32 29 34 54 59 47 35 35 45 71 122 159 167 168 192 204 205 206 210 212 209 210 216 219 215 209 205 203 201 198 192 189 184 170 156 149 147 147 151 152 150 151 156 159 162 161 156 153 153 152 152 152 151 150 152 151
11 10 11 13 15 15 15 15 17 18 19 22 26 28 29 32 34 34 34 34 32 34 44 47 39 32 35 45 61 104 131 129 143 168 177 184 193 198 198 201 208 212 213 212 207 202 203 202 194 188 186 179 169 159 151 148 151 153 151 149 150 155 160 160 156 153 151 150 151 151 149 148 149 151
17 16 17 18 18 17 17 19 19 18 19 23 28 30 30 31 32 31 33 37 36 30 33 43 45 40 40 48 62 82 96 97 100 123 148 158 163 171 175 172 169 178 191 197 196 196 200 202 195 187 182 177 170 162 154 149 150 154 155 151 148 151 157 158 155 151 149 147 145 144 142 142 145 151
20 19 20 21 22 21 21 22 22 21 21 23 25 27 30 31 32 33 35 39 40 35 33 41 48 50 50 52 59 68 71 68 67 85 119 134 141 150 154 142 126 127 151 172 183 190 196 196 191 185 176 164 157 156 154 151 149 150 153 152 148 148 152 153 151 147 144 140 136 135 138 143 147 154
22 22 23 23 22 22 22 21 20 20 19 20 22 25 28 31 33 36 39 40 39 37 37 42 49 54 53 48 51 60 62 57 56 65 83 97 111 128 131 121 108 109 120 136 156 171 180 181 179 178 173 164 155 151 147 145 146 147 147 148 146 144 146 147 146 143 140 134 132 134 139 145 151 157
23 23 23 22 20 20 19 18 17 16 16 18 20 22 26 30 32 34 35 35 34 35 38 40 43 49 52 48 50 56 58 55 56 65 74 78 81 92 98 94 91 100 106 111 125 138 148 156 160 160 158 154 152 152 147 141 142 145 144 141 139 139 142 143 141 140 139 135 134 138 141 144 148 151
24 23 21 20 18 17 17 16 15 14 14 15 17 20 24 28 30 32 32 32 33 37 40 41 42 45 49 49 51 54 56 56 58 61 68 74 75 75 77 73 70 80 89 95 108 120 128 134 135 132 131 130 130 137 141 138 136 137 136 136 136 136 139 140 138 139 143 142 139 141 143 145 146 147
20 20 19 18 18 18 17 16 15 15 16 16 16 18 22 25 28 30 31 32 35 38 39 42 44 46 46 49 52 54 56 58 61 62 64 67 69 68 68 66 62 65 73 78 90 108 120 126 124 119 117 116 111 112 125 134 136 134 132 134 138 138 139 142 144 145 148 147 144 143 145 148 149 149
17 15 14 14 15 17 18 18 18 18 18 18 18 19 19 22 26 28 30 35 40 41 39 40 43 44 46 49 52 56 58 59 61 64 64 65 66 64 63 64 62 61 64 66 74 94 108 117 122 120 115 111 106 97 104 129 140 143 139 137 142 145 145 148 152 152 151 152 151 148 147 149 151 149
18 16 14 11 12 15 18 21 21 21 20 20 21 22 21 22 24 28 33 38 41 41 42 43 43 44 47 50 53 56 60 60 60 62 65 68 70 67 63 63 62 63 65 66 71 84 91 95 104 110 109 108 109 93 87 113 133 145 146 143 145 150 152 153 154 154 154 156 154 149 146 146 146 144
20 18 17 14 13 15 20 22 23 23 22 22 23 24 24 25 26 29 34 38 38 39 41 43 44 45 46 48 50 53 58 62 62 62 64 68 70 69 66 65 65 67 71 73 75 82 89 89 91 96 99 100 101 103 103 107 117 135 149 151 150 153 156 155 153 154 157 157 154 149 145 143 142 140
23 20 18 17 17 19 23 25 26 26 26 26 27 27 27 27 28 29 32 34 36 37 39 40 42 44 45 47 49 52 57 63 64 64 65 68 69 71 70 70 71 71 73 74 75 80 86 88 90 94 100 103 108 118 120 114 114 132 150 156 156 156 158 157 155 157 160 159 155 152 147 142 140 139
25 23 20 19 19 22 27 29 29 30 30 30 31 32 30 30 30 30 30 31 33 38 40 41 42 43 44 46 50 54 56 60 62 66 70 71 72 74 75 75 78 78 76 76 78 80 85 91 96 103 108 111 118 124 124 120 120 133 148 158 161 162 162 161 160 160 160 161 158 152 147 145 145 143
24 24 23 21 20 22 25 27 27 28 29 31 33 33 32 32 33 33 31 32 35 40 42 42 43 44 44 45 49 53 56 58 58 61 66 68 69 73 76 77 78 80 80 81 83 85 91 97 104 114 120 122 124 124 120 114 114 123 136 152 162 166 167 167 164 159 158 161 159 152 148 149 149 148
22 24 25 22 20 21 23 24 23 23 26 30 33 33 31 32 33 34 34 34 36 40 43 44 44 46 47 47 47 49 52 55 55 56 58 61 63 66 69 72 74 77 81 85 89 98 108 113 118 124 127 129 129 123 115 113 116 118 124 139 155 165 169 171 169 163 159 160 160 155 151 150 152 159
19 23 24 22 20 22 25 26 26 27 28 31 31 30 30 31 31 32 35 36 35 36 39 42 44 45 46 47 47 47 47 49 51 52 51 52 56 61 68 73 77 82 90 95 100 108 116 121 128 131 130 130 130 125 119 119 121 121 123 129 140 153 161 165 168 169 166 165 165 163 162 163 167 177
16 19 22 23 23 26 28 28 28 29 30 30 30 30 30 31 30 31 33 36 37 36 36 39 44 45 45 46 46 47 46 45 46 48 48 49 54 64 76 83 84 88 98 105 108 112 116 120 126 130 129 131 133 130 125 124 125 124 124 127 131 141 149 154 160 166 166 165 167 170 175 182 183 177
15 18 22 24 26 29 32 31 30 29 29 29 30 30 30 28 28 29 29 31 35 37 37 40 45 47 49 49 49 49 48 46 45 48 49 53 62 73 86 93 92 93 104 114 117 118 119 120 122 124 126 130 135 134 131 131 129 127 126 128 130 134 139 144 150 153 149 146 147 151 156 161 157 150